SNJ370 ROAH-ROMY

Flight info

Callsign SNJ370
Flight time 0h 41m
Altitude 28000
Route GANJU2 GANJU Y576 YUTAH YUTAHW
Aircraft B738/M-SDE2E3FGHIRWXY/LB1

Departure

Time 2026-04-21 01:34
Airport Naha International Airport (ROAH)

Arrival

Time 2026-04-21 02:15
Airport Miyako Airport (ROMY)
Time Latitude Longitude Altitude Speed Heading
2026-04-21 01:24 26.20636 127.64927 21 ft 0 kts 267°
2026-04-21 01:26 26.20636 127.64926 21 ft 1 kts 267°
2026-04-21 01:27 26.20635 127.64909 22 ft 4 kts 267°
2026-04-21 01:27 26.20634 127.64872 21 ft 6 kts 267°
2026-04-21 01:27 26.20630 127.64818 18 ft 8 kts 264°
2026-04-21 01:27 26.20593 127.64765 17 ft 10 kts 205°
2026-04-21 01:28 26.20520 127.64751 17 ft 11 kts 180°
2026-04-21 01:28 26.20438 127.64756 17 ft 12 kts 176°
2026-04-21 01:28 26.20353 127.64759 17 ft 13 kts 178°
2026-04-21 01:28 26.20258 127.64764 16 ft 14 kts 179°
2026-04-21 01:29 26.20154 127.64767 16 ft 15 kts 178°
2026-04-21 01:29 26.20045 127.64773 16 ft 16 kts 177°
2026-04-21 01:29 26.19935 127.64777 16 ft 16 kts 178°
2026-04-21 01:29 26.19815 127.64784 16 ft 17 kts 177°
2026-04-21 01:30 26.19698 127.64791 16 ft 17 kts 177°
2026-04-21 01:30 26.19576 127.64794 16 ft 18 kts 176°
2026-04-21 01:30 26.19452 127.64801 16 ft 18 kts 177°
2026-04-21 01:30 26.19326 127.64808 16 ft 18 kts 179°
2026-04-21 01:31 26.19201 127.64813 16 ft 18 kts 176°
2026-04-21 01:31 26.19079 127.64819 16 ft 18 kts 177°
2026-04-21 01:31 26.18952 127.64825 16 ft 19 kts 180°
2026-04-21 01:31 26.18823 127.64830 17 ft 18 kts 178°
2026-04-21 01:32 26.18693 127.64837 16 ft 19 kts 177°
2026-04-21 01:32 26.18561 127.64843 16 ft 19 kts 178°
2026-04-21 01:32 26.18427 127.64849 16 ft 19 kts 176°
2026-04-21 01:32 26.18305 127.64854 16 ft 12 kts 182°
2026-04-21 01:33 26.18243 127.64803 18 ft 12 kts 248°
2026-04-21 01:33 26.18241 127.64713 15 ft 11 kts 269°
2026-04-21 01:33 26.18283 127.64650 15 ft 11 kts 353°
2026-04-21 01:33 26.18361 127.64646 16 ft 12 kts 357°
2026-04-21 01:34 26.18631 127.64633 16 ft 74 kts 358°
2026-04-21 01:34 26.19380 127.64597 16 ft 139 kts 356°
2026-04-21 01:34 26.20464 127.64529 380 ft 164 kts 356°
2026-04-21 01:34 26.21586 127.64417 1300 ft 153 kts 355°
2026-04-21 01:35 26.22684 127.64330 2002 ft 164 kts
2026-04-21 01:35 26.23914 127.64305 2329 ft 194 kts
2026-04-21 01:35 26.25351 127.64256 2514 ft 222 kts 352°
2026-04-21 01:35 26.26857 127.63537 2729 ft 249 kts 331°
2026-04-21 01:36 26.28395 127.62531 3337 ft 261 kts 332°
2026-04-21 01:36 26.29971 127.61514 4160 ft 264 kts 332°
2026-04-21 01:36 26.31578 127.60487 4995 ft 267 kts 332°
2026-04-21 01:36 26.33192 127.59461 5802 ft 270 kts 333°
2026-04-21 01:37 26.34831 127.58423 6648 ft 271 kts 332°
2026-04-21 01:37 26.36491 127.57375 7368 ft 276 kts 332°
2026-04-21 01:37 26.38165 127.56318 8132 ft 278 kts 331°
2026-04-21 01:37 26.39821 127.55159 8808 ft 284 kts 318°
2026-04-21 01:38 26.40952 127.53390 9565 ft 285 kts 290°
2026-04-21 01:38 26.41273 127.51222 10322 ft 286 kts 265°
2026-04-21 01:38 26.40700 127.49045 10624 ft 305 kts 240°
2026-04-21 01:38 26.39350 127.47112 10810 ft 326 kts 229°
2026-04-21 01:39 26.37809 127.45189 10956 ft 346 kts 229°
2026-04-21 01:39 26.36161 127.43124 11329 ft 356 kts 229°
2026-04-21 01:39 26.34523 127.41046 11848 ft 361 kts 229°
2026-04-21 01:39 26.32797 127.39007 12496 ft 363 kts 225°
2026-04-21 01:40 26.30990 127.37029 13122 ft 365 kts 224°
2026-04-21 01:40 26.29150 127.35058 13750 ft 368 kts 224°
2026-04-21 01:40 26.27300 127.33074 14325 ft 371 kts 224°
2026-04-21 01:40 26.25442 127.31066 14873 ft 373 kts 225°
2026-04-21 01:41 26.23576 127.29039 15534 ft 372 kts 225°
2026-04-21 01:41 26.21731 127.27029 15956 ft 369 kts 225°
2026-04-21 01:41 26.19907 127.25037 16095 ft 376 kts 225°
2026-04-21 01:41 26.18001 127.22954 16099 ft 390 kts 225°
2026-04-21 01:42 26.16036 127.20808 16095 ft 396 kts 225°
2026-04-21 01:42 26.14066 127.18661 16080 ft 394 kts 225°
2026-04-21 01:42 26.12179 127.16476 16082 ft 390 kts 232°
2026-04-21 01:42 26.10659 127.13992 16101 ft 387 kts 238°
2026-04-21 01:43 26.09247 127.11437 16085 ft 388 kts 239°
2026-04-21 01:43 26.08325 127.09740 16091 ft 388 kts 239°
2026-04-21 01:43 26.06922 127.07167 16098 ft 389 kts 238°
2026-04-21 01:43 26.05507 127.04599 16090 ft 391 kts 238°
2026-04-21 01:44 26.03598 127.01182 16089 ft 392 kts 238°
2026-04-21 01:44 26.02615 126.99437 16092 ft 393 kts 238°
2026-04-21 01:44 26.01160 126.96862 16090 ft 394 kts 238°
2026-04-21 01:44 26.00687 126.96027 16092 ft 394 kts 238°
2026-04-21 01:45 26.00235 126.95230 16091 ft 394 kts 238°
2026-04-21 01:45 25.99096 126.93223 16093 ft 394 kts 238°
2026-04-21 01:45 25.97634 126.90648 16092 ft 395 kts 238°
2026-04-21 01:45 25.96145 126.88027 16180 ft 406 kts 238°
2026-04-21 01:46 25.94620 126.85342 16455 ft 414 kts 238°
2026-04-21 01:46 25.93077 126.82628 16836 ft 417 kts 238°
2026-04-21 01:46 25.91526 126.79902 17271 ft 418 kts 238°
2026-04-21 01:46 25.89969 126.77165 17715 ft 420 kts 238°
2026-04-21 01:47 25.88403 126.74414 18158 ft 421 kts 238°
2026-04-21 01:47 25.86834 126.71654 18555 ft 422 kts 239°
2026-04-21 01:47 25.85328 126.68846 18910 ft 424 kts 240°
2026-04-21 01:47 25.83886 126.66027 19270 ft 425 kts 241°
2026-04-21 01:48 25.82441 126.63155 19618 ft 426 kts 241°
2026-04-21 01:48 25.80992 126.60278 19955 ft 428 kts 241°
2026-04-21 01:48 25.79529 126.57386 20286 ft 430 kts 241°
2026-04-21 01:48 25.78057 126.54495 20613 ft 431 kts 241°
2026-04-21 01:49 25.76575 126.51600 20930 ft 432 kts 240°
2026-04-21 01:49 25.75083 126.48692 21243 ft 434 kts 240°
2026-04-21 01:49 25.73585 126.45780 21535 ft 435 kts 240°
2026-04-21 01:49 25.72078 126.42855 21825 ft 437 kts 240°
2026-04-21 01:50 25.70563 126.39917 22104 ft 439 kts 240°
2026-04-21 01:50 25.69064 126.37009 22373 ft 440 kts 240°
2026-04-21 01:50 25.67540 126.34057 22605 ft 441 kts 240°
2026-04-21 01:50 25.66039 126.31151 22549 ft 425 kts 240°
2026-04-21 01:51 25.64598 126.28362 22549 ft 405 kts 240°
2026-04-21 01:51 25.63225 126.25706 22542 ft 388 kts 240°
2026-04-21 01:51 25.61925 126.23192 22539 ft 377 kts 240°
2026-04-21 01:51 25.60616 126.20663 22561 ft 379 kts 240°
2026-04-21 01:52 25.59292 126.18103 22573 ft 384 kts 240°
2026-04-21 01:52 25.56625 126.12956 22556 ft 383 kts 240°
2026-04-21 01:52 25.55317 126.10433 22553 ft 381 kts 240°
2026-04-21 01:53 25.53995 126.07885 22557 ft 380 kts 240°
2026-04-21 01:53 25.52677 126.05345 22559 ft 380 kts 240°
2026-04-21 01:53 25.51355 126.02801 22562 ft 381 kts 240°
2026-04-21 01:53 25.50029 126.00248 22556 ft 382 kts 240°
2026-04-21 01:54 25.48702 125.97695 22556 ft 382 kts 240°
2026-04-21 01:54 25.47374 125.95143 22561 ft 383 kts 240°
2026-04-21 01:54 25.46056 125.92610 22555 ft 384 kts 240°
2026-04-21 01:54 25.44713 125.90031 22569 ft 392 kts 240°
2026-04-21 01:55 25.43328 125.87372 22671 ft 403 kts 240°
2026-04-21 01:55 25.41914 125.84662 22968 ft 408 kts 240°
2026-04-21 01:55 25.40490 125.81931 23072 ft 413 kts 240°
2026-04-21 01:55 25.39041 125.79155 23086 ft 417 kts 240°
2026-04-21 01:56 25.37591 125.76378 23076 ft 414 kts 240°
2026-04-21 01:56 25.36171 125.73661 23083 ft 413 kts 240°
2026-04-21 01:56 25.34537 125.71044 23079 ft 415 kts 228°
2026-04-21 01:56 25.32421 125.68848 23100 ft 417 kts 223°
2026-04-21 01:57 25.30241 125.66735 23085 ft 418 kts 223°
2026-04-21 01:57 25.28042 125.64621 23086 ft 418 kts 223°
2026-04-21 01:57 25.25853 125.62507 23085 ft 418 kts 223°
2026-04-21 01:57 25.23671 125.60385 23088 ft 418 kts 223°
2026-04-21 01:58 25.21497 125.58257 23085 ft 417 kts 223°
2026-04-21 01:58 25.19360 125.56158 23072 ft 403 kts 223°
2026-04-21 01:58 25.17307 125.54138 23070 ft 390 kts 223°
2026-04-21 01:58 25.15292 125.52152 23080 ft 387 kts 223°
2026-04-21 01:59 25.13290 125.50179 23011 ft 382 kts 223°
2026-04-21 01:59 25.11319 125.48240 22617 ft 377 kts 223°
2026-04-21 01:59 25.09400 125.46353 22247 ft 372 kts 223°
2026-04-21 01:59 25.07733 125.44237 21928 ft 359 kts 242°
2026-04-21 02:00 25.07005 125.41697 21815 ft 340 kts 263°
2026-04-21 02:00 25.07181 125.39139 21475 ft 333 kts 284°
2026-04-21 02:00 25.08216 125.36872 21007 ft 334 kts 306°
2026-04-21 02:00 25.09978 125.35183 20439 ft 341 kts 327°
2026-04-21 02:01 25.12237 125.34317 19786 ft 350 kts 349°
2026-04-21 02:01 25.14702 125.34407 19015 ft 362 kts 11°
2026-04-21 02:01 25.17034 125.35465 18141 ft 373 kts 32°
2026-04-21 02:01 25.18969 125.37406 17086 ft 382 kts 53°
2026-04-21 02:02 25.20218 125.40013 16070 ft 386 kts 75°
2026-04-21 02:02 25.20577 125.42926 15273 ft 381 kts 95°
2026-04-21 02:02 25.20031 125.45734 14628 ft 370 kts 115°
2026-04-21 02:02 25.18709 125.48111 14008 ft 358 kts 134°
2026-04-21 02:03 25.16816 125.49831 13278 ft 349 kts 153°
2026-04-21 02:03 25.14602 125.50782 12476 ft 344 kts 170°
2026-04-21 02:03 25.12236 125.50937 11692 ft 340 kts 188°
2026-04-21 02:03 25.10929 125.50675 11274 ft 338 kts 197°
2026-04-21 02:04 25.10916 125.50671 11266 ft 338 kts 197°
2026-04-21 02:05 25.08780 125.49731 10731 ft 334 kts 212°
2026-04-21 02:05 25.06965 125.48228 10554 ft 322 kts 224°
2026-04-21 02:05 25.05392 125.46516 10378 ft 313 kts 227°
2026-04-21 02:05 25.03910 125.44804 10232 ft 304 kts 228°
2026-04-21 02:06 25.02473 125.43131 10092 ft 296 kts 228°
2026-04-21 02:06 25.01084 125.41524 9940 ft 283 kts 228°
2026-04-21 02:06 24.99741 125.39977 9503 ft 281 kts 229°
2026-04-21 02:06 24.98400 125.38441 9273 ft 277 kts 228°
2026-04-21 02:07 24.97064 125.36922 8969 ft 276 kts 228°
2026-04-21 02:07 24.95746 125.35431 8676 ft 275 kts 228°
2026-04-21 02:07 24.94415 125.33929 8385 ft 274 kts 228°
2026-04-21 02:07 24.93086 125.32430 8089 ft 273 kts 229°
2026-04-21 02:08 24.91761 125.30938 7795 ft 272 kts 229°
2026-04-21 02:08 24.90438 125.29448 7505 ft 272 kts 229°
2026-04-21 02:08 24.89115 125.27957 7215 ft 272 kts 228°
2026-04-21 02:08 24.87785 125.26460 6873 ft 275 kts 229°
2026-04-21 02:09 24.86449 125.24957 6605 ft 274 kts 229°
2026-04-21 02:09 24.85133 125.23476 6314 ft 274 kts 229°
2026-04-21 02:09 24.83805 125.21983 6060 ft 271 kts 229°
2026-04-21 02:09 24.82500 125.20517 6020 ft 265 kts 229°
2026-04-21 02:10 24.81234 125.19096 5986 ft 255 kts 229°
2026-04-21 02:10 24.80019 125.17734 5967 ft 243 kts 229°
2026-04-21 02:10 24.78863 125.16439 5976 ft 230 kts 229°
2026-04-21 02:10 24.77691 125.15262 5821 ft 228 kts 222°
2026-04-21 02:11 24.76427 125.14173 5336 ft 239 kts 219°
2026-04-21 02:11 24.74890 125.13380 4837 ft 251 kts 186°
2026-04-21 02:11 24.73236 125.13735 4574 ft 240 kts 146°
2026-04-21 02:11 24.72139 125.14955 4489 ft 218 kts 124°
2026-04-21 02:12 24.71218 125.16298 3855 ft 227 kts 124°
2026-04-21 02:12 24.70251 125.17702 3150 ft 234 kts 124°
2026-04-21 02:12 24.69462 125.19254 2436 ft 232 kts 98°
2026-04-21 02:12 24.69644 125.20891 2235 ft 207 kts 66°
2026-04-21 02:13 24.70273 125.22236 1983 ft 188 kts 59°
2026-04-21 02:13 24.71118 125.23237 1779 ft 170 kts 41°
2026-04-21 02:13 24.71984 125.24033 1563 ft 156 kts 41°
2026-04-21 02:13 24.72829 125.24784 1367 ft 162 kts 40°
2026-04-21 02:14 24.73666 125.25515 1146 ft 144 kts 40°
2026-04-21 02:14 24.74432 125.26178 1007 ft 137 kts 40°
2026-04-21 02:14 24.75197 125.26843 810 ft 141 kts 37°
2026-04-21 02:14 24.75966 125.27480 594 ft 136 kts 41°
2026-04-21 02:15 24.76697 125.28132 397 ft 136 kts 38°
2026-04-21 02:15 24.77435 125.28755 226 ft 132 kts 39°
2026-04-21 02:15 24.78094 125.29340 145 ft 88 kts 40°
2026-04-21 02:15 24.78263 125.29519 147 ft 17 kts 85°
2026-04-21 02:16 24.78233 125.29582 147 ft 4 kts 129°
2026-04-21 02:16 24.78217 125.29604 147 ft 4 kts 129°
2026-04-21 02:16 24.78198 125.29630 146 ft 5 kts 129°
2026-04-21 02:16 24.78175 125.29660 146 ft 6 kts 129°
2026-04-21 02:17 24.78145 125.29692 145 ft 6 kts 157°
2026-04-21 02:17 24.78104 125.29686 145 ft 6 kts 201°
2026-04-21 02:17 24.78067 125.29659 144 ft 7 kts 217°
2026-04-21 02:17 24.78029 125.29627 143 ft 7 kts 218°
2026-04-21 02:18 24.77983 125.29602 143 ft 8 kts 174°
2026-04-21 02:18 24.77946 125.29638 144 ft 0 kts 129°
2026-04-21 02:18 24.77946 125.29639 144 ft 0 kts 128°
2026-04-21 02:18 24.77944 125.29641 144 ft 0 kts 128°
2026-04-21 02:19 24.77943 125.29643 144 ft 1 kts 128°
2026-04-21 02:19 24.77942 125.29645 144 ft 0 kts 128°
2026-04-21 02:19 24.77941 125.29645 144 ft 0 kts 128°